Weather History for KFWZ - August, 2014

Change the Weather History Date:

Thursday, August 28, 2014

  Actual Average (KLND) Record (KLND)
Temperature  
Mean Temperature 55 °F 67 °F  
Max Temperature 64 °F 82 °F 94 °F (2012)
Min Temperature 46 °F 52 °F 36 °F (1911)
Degree Days  
Heating Degree Days 10 2  
Month to date heating degree days 17  
Since 1 June heating degree days 159  
Since 1 July heating degree days 33  
Cooling Degree Days 0 3  
Month to date cooling degree days 157  
Year to date cooling degree days 434  
Since 1 June cooling degree days 429  
Growing Degree Days 5 (Base 50)    
Moisture  
Dew Point 38 °F    
Average Humidity 52    
Maximum Humidity 81    
Minimum Humidity 34    
Precipitation  
Precipitation 0.00 in 0.02 in 0.51 in (1892)
Month to date precipitation 0.56  
Year to date precipitation 8.83  
Snow  
Snow 0.00 in 0.00 in - ()
Month to date snowfall 0.0  
Since 1 June snowfall 0.1  
Since 1 July snowfall 0.0  
Snow Depth -    
Sea Level Pressure  
Sea Level Pressure 30.28 in    
Wind  
Wind Speed 12 mph (NW)    
Max Wind Speed 17 mph    
Max Gust Speed -    
Visibility 10 miles    
Events      
T = Trace of Precipitation, MM = Missing Value Source: NWS Daily Summary

Daily Weather History Graph

Daily Weather History Graph

Search for Another Location

Airport or City:

Trip Planner

Search our weather history database for the weather conditions in past years. The results will help you decide how hot, cold, wet, or windy it might be!

Date:

Astronomy

Aug. 28, 2014 Rise Set
Actual Time 6:35 AM MDT 7:55 PM MDT
Civil Twilight 6:06 AM MDT 8:25 PM MDT
Nautical Twilight 5:31 AM MDT 9:00 PM MDT
Astronomical Twilight 4:54 AM MDT 9:37 PM MDT
Moon 9:35 AM MDT (8/28) 9:16 PM MDT (8/28)
Length of Visible Light 14h 18m
Length of Day
13h 19m
Waxing Crescent, 9% of the Moon is Illuminated
Aug 28
Waxing Crescent
Sep 2
First Quarter
Sep 8
Full
Sep 15
Last Quarter
Sep 24
New

Hourly Weather History & Observations

Time (MDT) Temp. Dew Point Humidity Pressure Visibility Wind Dir Wind Speed Gust Speed Precip Events Conditions
12:15 AM 50.0 °F 41.0 °F 71% 30.28 in 10.0 mi North - - N/A   Overcast
12:35 AM 48.2 °F 41.0 °F 76% 30.28 in 10.0 mi North - - N/A   Overcast
12:55 AM 48.2 °F 41.0 °F 76% 30.28 in 10.0 mi North - - N/A   Overcast
1:15 AM 46.4 °F 41.0 °F 81% 30.28 in 10.0 mi North - - N/A   Overcast
1:35 AM 48.2 °F 41.0 °F 76% 30.28 in 10.0 mi North - - N/A   Overcast
1:55 AM 48.2 °F 41.0 °F 76% 30.28 in 10.0 mi North - - N/A   Overcast
2:15 AM 48.2 °F 41.0 °F 76% 30.28 in 10.0 mi North - - N/A   Overcast
2:35 AM 48.2 °F 41.0 °F 76% 30.28 in 10.0 mi North - - N/A   Overcast
2:55 AM 46.4 °F 41.0 °F 81% 30.28 in 10.0 mi North - - N/A   Overcast
3:15 AM 48.2 °F 41.0 °F 76% 30.28 in 10.0 mi NW 8.1 mph - N/A   Overcast
3:35 AM 48.2 °F 41.0 °F 76% 30.28 in 10.0 mi North - - N/A   Overcast
3:55 AM 50.0 °F 41.0 °F 71% 30.27 in 10.0 mi North - - N/A   Overcast
4:15 AM 50.0 °F 41.0 °F 71% 30.28 in 10.0 mi North - - N/A   Overcast
4:35 AM 50.0 °F 41.0 °F 71% 30.28 in 10.0 mi NW 9.2 mph - N/A   Overcast
4:55 AM 48.2 °F 41.0 °F 76% 30.28 in 10.0 mi NW 11.5 mph - N/A   Overcast
5:15 AM 50.0 °F 41.0 °F 71% 30.28 in 10.0 mi NW 17.3 mph - N/A   Overcast
5:35 AM 50.0 °F 41.0 °F 71% 30.28 in 10.0 mi North - - N/A   Overcast
5:55 AM 50.0 °F 41.0 °F 71% 30.28 in 10.0 mi NNW 13.8 mph - N/A   Overcast
6:15 AM 50.0 °F 39.2 °F 66% 30.28 in 10.0 mi NW 15.0 mph - N/A   Overcast
6:35 AM 50.0 °F 39.2 °F 66% 30.29 in 10.0 mi NW 13.8 mph - N/A   Overcast
6:55 AM 50.0 °F 39.2 °F 66% 30.29 in 10.0 mi NW 15.0 mph - N/A   Overcast
7:15 AM 50.0 °F 39.2 °F 66% 30.29 in 10.0 mi North - - N/A   Overcast
7:35 AM 51.8 °F 39.2 °F 62% 30.30 in 10.0 mi North - - N/A   Overcast
7:55 AM 53.6 °F 37.4 °F 54% 30.30 in 10.0 mi NW 12.7 mph - N/A   Overcast
8:15 AM 55.4 °F 37.4 °F 51% 30.30 in 10.0 mi NNW 11.5 mph - N/A   Overcast
8:35 AM 55.4 °F 37.4 °F 51% 30.31 in 10.0 mi NW 10.4 mph - N/A   Overcast
8:55 AM 57.2 °F 37.4 °F 48% 30.31 in 10.0 mi North - - N/A   Overcast
9:15 AM 59.0 °F 37.4 °F 45% 30.31 in 10.0 mi North - - N/A   Overcast
9:35 AM 59.0 °F 35.6 °F 42% 30.32 in 10.0 mi North - - N/A   Overcast
9:55 AM 60.8 °F 33.8 °F 36% 30.32 in 10.0 mi North - - N/A   Overcast
10:15 AM 60.8 °F 33.8 °F 36% 30.32 in 10.0 mi North - - N/A   Overcast
10:35 AM 60.8 °F 33.8 °F 36% 30.32 in 10.0 mi North - - N/A   Overcast
10:55 AM 62.6 °F 33.8 °F 34% 30.32 in 10.0 mi North - - N/A   Overcast
11:15 AM 62.6 °F 33.8 °F 34% 30.32 in 10.0 mi North - - N/A   Overcast
11:35 AM 59.0 °F 35.6 °F 42% 30.32 in 10.0 mi North - - N/A   Overcast
11:55 AM 62.6 °F 33.8 °F 34% 30.32 in 10.0 mi North - - N/A   Overcast
12:15 PM 62.6 °F 35.6 °F 37% 30.32 in 10.0 mi North - - N/A   Overcast
12:35 PM 60.8 °F 33.8 °F 36% 30.32 in 10.0 mi North - - N/A   Overcast
12:55 PM 60.8 °F 42.8 °F 52% 30.32 in 10.0 mi North - - N/A   Overcast
1:15 PM 60.8 °F 41.0 °F 48% 30.32 in 10.0 mi North - - N/A   Overcast
1:35 PM 60.8 °F 42.8 °F 52% 30.31 in 10.0 mi North - - N/A   Overcast
1:55 PM 60.8 °F 41.0 °F 48% 30.31 in 10.0 mi North - - N/A   Overcast
2:15 PM 59.0 °F 41.0 °F 51% 30.31 in 10.0 mi North - - N/A   Overcast
2:35 PM 60.8 °F 41.0 °F 48% 30.30 in 10.0 mi North - - N/A   Overcast
2:55 PM 64.4 °F 41.0 °F 42% 30.29 in 10.0 mi North - - N/A   Overcast
3:15 PM 64.4 °F 41.0 °F 42% 30.28 in 10.0 mi North - - N/A   Overcast
3:35 PM 60.8 °F 42.8 °F 52% 30.28 in 10.0 mi North - - N/A   Overcast
3:55 PM 64.4 °F 42.8 °F 45% 30.27 in 10.0 mi North - - N/A   Overcast
4:15 PM 64.4 °F 42.8 °F 45% 30.27 in 10.0 mi North - - N/A   Overcast
4:35 PM 62.6 °F 41.0 °F 45% 30.27 in 10.0 mi North - - N/A   Overcast
4:55 PM 64.4 °F 41.0 °F 42% 30.26 in 10.0 mi North - - N/A   Overcast
5:15 PM 62.6 °F 39.2 °F 42% 30.25 in 10.0 mi North - - N/A   Overcast
5:35 PM 62.6 °F 37.4 °F 39% 30.25 in 10.0 mi North - - N/A   Overcast
5:55 PM 64.4 °F 35.6 °F 34% 30.25 in 10.0 mi North - - N/A   Overcast
6:15 PM 64.4 °F 37.4 °F 37% 30.25 in 10.0 mi North - - N/A   Overcast
6:35 PM 64.4 °F 37.4 °F 37% 30.24 in 10.0 mi North - - N/A   Overcast
6:55 PM 62.6 °F 35.6 °F 37% 30.23 in 10.0 mi North - - N/A   Overcast
7:15 PM 62.6 °F 37.4 °F 39% 30.23 in 10.0 mi North - - N/A   Overcast
7:35 PM 62.6 °F 35.6 °F 37% 30.23 in 10.0 mi North - - N/A   Overcast
7:55 PM 60.8 °F 35.6 °F 39% 30.23 in 10.0 mi North - - N/A   Overcast
8:15 PM 60.8 °F 35.6 °F 39% 30.23 in 10.0 mi North - - N/A   Overcast
8:35 PM 60.8 °F 35.6 °F 39% 30.23 in 10.0 mi North - - N/A   Overcast
8:55 PM 59.0 °F 35.6 °F 42% 30.23 in 10.0 mi North - - N/A   Overcast
9:15 PM 59.0 °F 35.6 °F 42% 30.23 in 10.0 mi North - - N/A   Overcast
9:35 PM 59.0 °F 35.6 °F 42% 30.23 in 10.0 mi North - - N/A   Overcast
9:55 PM 59.0 °F 35.6 °F 42% 30.23 in 10.0 mi North - - N/A   Overcast
10:15 PM 59.0 °F 35.6 °F 42% 30.23 in 10.0 mi North - - N/A   Overcast
10:35 PM 57.2 °F 35.6 °F 44% 30.23 in 10.0 mi North - - N/A   Overcast
10:55 PM 59.0 °F 33.8 °F 39% 30.23 in 10.0 mi North - - N/A   Overcast
11:15 PM 59.0 °F 33.8 °F 39% 30.23 in 10.0 mi North - - N/A   Overcast
11:35 PM 59.0 °F 33.8 °F 39% 30.23 in 10.0 mi North - - N/A   Overcast
11:55 PM 59.0 °F 33.8 °F 39% 30.23 in 10.0 mi North - - N/A   Overcast